EW4120 Weather Reports


Display with metric or nautical units.
time (UTC)temp
F
wind
direction
speed
MPH
gust
MPH
rain 1hr
in
rain 24hr
in
rain mn
in
humidity
%
barometer
mb
20260903183556 95 23 1.0 5.0 0.00 0.13 0.03 56 1018.9
20260903182616 96 315 1.0 5.0 0.00 0.13 0.03 54 1019.1
20260903181516 96 315 1.0 4.0 0.00 0.13 0.03 56 1019.2
20260903180516 96 293 1.0 3.0 0.00 0.13 0.03 57 1019.3
20260903175516 95 23 1.0 4.0 0.00 0.13 0.03 58 1019.4
20260903174536 95 293 1.0 3.0 0.00 0.13 0.03 58 1019.5
20260903173536 95 315 1.0 2.0 0.00 0.13 0.03 57 1019.6
20260903172536 95 293 1.0 4.0 0.00 0.13 0.03 58 1019.6
20260903171536 94 45 1.0 5.0 0.00 0.13 0.03 59 1019.7
20260903170516 94 0.0 1.0 0.00 0.13 0.03 64 1019.9
20260903165536 93 45 1.0 4.0 0.00 0.13 0.03 60 1020.0
20260903164556 93 23 1.0 3.0 0.00 0.13 0.03 60 1020.0
20260903163516 93 0.0 2.0 0.00 0.13 0.03 61 1020.1
20260903162536 92 45 1.0 5.0 0.00 0.13 0.03 59 1020.2
20260903161516 92 0.0 2.0 0.00 0.13 0.03 59 1020.2
20260903160536 92 45 1.0 6.0 0.00 0.13 0.03 60 1020.4
20260903155536 91 45 1.0 4.0 0.00 0.13 0.03 65 1020.3
20260903154516 91 0.0 3.0 0.00 0.13 0.03 63 1020.4
20260903153516 90 23 1.0 5.0 0.00 0.14 0.03 67 1020.5
20260903152516 90 0.0 1.0 0.00 0.14 0.03 71 1020.6
20260903151536 90 0.0 3.0 0.00 0.14 0.03 69 1020.5
20260903150637 89 0.0 3.0 0.00 0.14 0.03 68 1020.5
20260903145536 88 0.0 1.0 0.00 0.14 0.03 72 1020.5
20260903144616 88 0.0 1.0 0.00 0.14 0.03 76 1020.5
20260903143516 87 0.0 1.0 0.00 0.14 0.03 76 1020.5
20260903142616 86 0.0 1.0 0.00 0.14 0.03 78 1020.5
20260903141516 85 0.0 1.0 0.00 0.14 0.03 82 1020.5
20260903140516 84 0.0 1.0 0.01 0.14 0.03 84 1020.5
20260903135536 82 0.0 1.0 0.01 0.14 0.03 89 1020.4
20260903134556 81 0.0 1.0 0.01 0.14 0.03 91 1020.2
20260903133536 78 0.0 1.0 0.01 0.14 0.03 97 1020.1
20260903132516 77 0.0 0.0 0.01 0.14 0.03 100 1020.2
20260903131515 76 0.0 0.0 0.01 0.14 0.03 100 1020.3
20260903130515 75 0.0 0.0 0.00 0.14 0.02 100 1020.3
20260903125536 74 0.0 0.0 0.00 0.14 0.02 100 1020.2
20260903124616 74 0.0 0.0 0.00 0.14 0.02 100 1020.2
20260903123636 73 0.0 0.0 0.00 0.14 0.02 100 1020.1
20260903122515 72 0.0 0.0 0.00 0.14 0.02 99 1020.1
20260903121515 72 0.0 0.0 0.00 0.14 0.02 99 1020.2
20260903120515 71 0.0 0.0 0.00 0.14 0.02 99 1020.2
20260903115515 71 0.0 0.0 0.00 0.14 0.02 99 1020.2
20260903114515 70 0.0 0.0 0.00 0.14 0.02 99 1020.0
20260903113515 70 0.0 0.0 0.00 0.14 0.02 99 1019.8
20260903112515 70 0.0 0.0 0.00 0.14 0.02 99 1019.9
20260903111616 70 0.0 0.0 0.00 0.14 0.02 99 1019.8
20260903110535 70 0.0 0.0 0.00 0.14 0.02 99 1019.8
20260903104535 70 0.0 0.0 0.00 0.14 0.02 99 1019.8
20260903103535 70 0.0 0.0 0.00 0.14 0.02 98 1019.8
20260903102535 70 0.0 0.0 0.00 0.14 0.02 98 1019.7
20260903101615 70 0.0 0.0 0.00 0.14 0.02 99 1019.6
20260903100515 70 0.0 0.0 0.00 0.14 0.02 99 1019.6
20260903095535 70 0.0 0.0 0.00 0.14 0.02 98 1019.5
20260903094515 70 0.0 0.0 0.01 0.14 0.02 98 1019.6
20260903093535 70 0.0 0.0 0.01 0.14 0.02 98 1019.6
20260903092535 70 0.0 0.0 0.01 0.14 0.02 98 1019.5
20260903091515 70 0.0 0.0 0.01 0.14 0.02 98 1019.4
20260903090535 71 0.0 0.0 0.01 0.14 0.02 98 1019.4
20260903085515 71 0.0 0.0 0.01 0.14 0.02 98 1019.3
20260903084617 71 0.0 0.0 0.00 0.13 0.01 98 1019.3
20260903083557 71 0.0 0.0 0.00 0.13 0.01 98 1019.4
20260903082517 71 0.0 0.0 0.00 0.13 0.01 98 1019.3
20260903081517 71 0.0 0.0 0.00 0.13 0.01 98 1019.2
20260903080517 71 0.0 0.0 0.00 0.13 0.01 98 1019.2
20260903075557 71 0.0 0.0 0.00 0.13 0.01 98 1019.1
20260903074617 72 0.0 0.0 0.00 0.13 0.01 98 1019.2
20260903073537 71 0.0 0.0 0.00 0.13 0.01 98 1019.0
20260903072517 72 0.0 0.0 0.00 0.13 0.01 98 1019.0
20260903071637 72 0.0 0.0 0.00 0.13 0.01 97 1019.1
20260903070517 72 0.0 0.0 0.00 0.13 0.01 98 1019.1
20260903065537 72 0.0 0.0 0.00 0.13 0.01 97 1019.2
20260903064517 72 0.0 0.0 0.00 0.13 0.01 98 1019.2
20260903063557 72 0.0 0.0 0.00 0.13 0.01 97 1019.1
20260903062517 72 0.0 0.0 0.00 0.14 0.01 97 1019.1
20260903061557 72 0.0 0.0 0.00 0.14 0.01 97 1019.0
20260903060517 72 0.0 0.0 0.00 0.14 0.01 97 1019.1
20260903055517 73 0.0 0.0 0.01 0.14 0.01 97 1019.1
20260903054517 73 0.0 0.0 0.01 0.14 0.01 97 1019.3
20260903053617 73 0.0 0.0 0.01 0.14 0.01 97 1019.2
20260903052617 73 0.0 0.0 0.01 0.14 0.01 97 1019.2
20260903051557 73 0.0 0.0 0.01 0.14 0.01 96 1019.2
20260903050537 73 0.0 0.0 0.01 0.14 0.01 96 1019.2
20260903045637 73 0.0 0.0 0.00 0.13 0.00 96 1019.1
20260903044517 73 0.0 0.0 0.00 0.13 0.00 96 1019.1
20260903043537 74 0.0 0.0 0.00 0.13 0.00 96 1019.1
20260903042537 74 0.0 0.0 0.00 0.13 0.00 96 1019.0
20260903041537 74 0.0 0.0 0.00 0.13 0.00 95 1019.2
20260903040537 74 0.0 0.0 0.00 0.13 0.00 95 1019.2
20260903035617 74 0.0 0.0 0.00 0.13 0.13 95 1019.1
20260903034617 75 0.0 0.0 0.01 0.13 0.13 95 1019.2
20260903033537 75 0.0 0.0 0.01 0.13 0.13 94 1019.3
20260903032537 75 0.0 0.0 0.01 0.13 0.13 94 1019.5
20260903031517 75 0.0 0.0 0.01 0.13 0.13 94 1019.4
20260903030517 75 0.0 0.0 0.01 0.13 0.13 93 1019.5
20260903024517 76 0.0 0.0 0.00 0.13 0.12 92 1019.6
20260903023557 76 0.0 0.0 0.00 0.13 0.12 92 1019.6
20260903022617 76 0.0 0.0 0.00 0.13 0.12 91 1019.5
20260903021517 77 0.0 0.0 0.00 0.13 0.12 91 1019.7
20260903020617 77 0.0 0.0 0.00 0.13 0.12 90 1019.6
20260903015517 77 0.0 0.0 0.01 0.13 0.12 90 1019.7
20260903014637 77 0.0 0.0 0.01 0.13 0.12 89 1019.7
20260903013537 78 0.0 0.0 0.02 0.13 0.12 88 1019.8
20260903012537 78 0.0 0.0 0.02 0.13 0.12 87 1019.5
20260903011517 79 0.0 0.0 0.02 0.13 0.12 86 1019.5
20260903010557 79 0.0 0.0 0.03 0.13 0.12 86 1019.4
20260903005537 80 0.0 0.0 0.02 0.12 0.11 85 1019.3
20260903004517 80 0.0 0.0 0.02 0.12 0.11 83 1019.2
20260903003517 81 0.0 0.0 0.01 0.11 0.10 82 1019.1
20260903002517 82 0.0 0.0 0.02 0.11 0.10 81 1019.0
20260903001517 82 0.0 0.0 0.03 0.11 0.10 80 1019.0
20260903000517 83 0.0 0.0 0.03 0.10 0.09 79 1019.0
20260902235557 84 0.0 0.0 0.03 0.10 0.09 77 1018.9
20260902234537 85 0.0 0.0 0.04 0.10 0.09 77 1018.9
20260902233517 86 0.0 0.0 0.04 0.11 0.09 75 1018.9
20260902232517 87 0.0 0.0 0.03 0.10 0.08 73 1018.8
20260902231557 89 0.0 0.0 0.02 0.09 0.07 70 1018.8
20260902230516 92 0.0 0.0 0.01 0.08 0.06 68 1019.0
20260902225537 94 0.0 0.0 0.01 0.09 0.06 63 1018.9
20260902224516 95 0.0 1.0 0.00 0.09 0.05 59 1018.9
20260902223557 96 0.0 0.0 0.00 0.09 0.05 57 1018.8
20260902222517 97 0.0 1.0 0.00 0.10 0.05 54 1018.9
20260902221516 97 0.0 1.0 0.00 0.10 0.05 54 1018.9
20260902220657 97 0.0 1.0 0.00 0.10 0.05 53 1018.9
20260902215516 97 0.0 3.0 0.00 0.11 0.05 56 1019.0
20260902214516 98 0.0 3.0 0.00 0.11 0.05 52 1019.0
20260902213516 99 0.0 2.0 0.00 0.11 0.05 53 1019.1
20260902212537 99 0.0 2.0 0.00 0.11 0.05 48 1019.1
20260902211637 98 0.0 2.0 0.00 0.11 0.05 52 1019.1
20260902210516 98 23 1.0 2.0 0.00 0.11 0.05 50 1019.1
20260902205516 98 23 1.0 3.0 0.00 0.11 0.05 52 1019.2
20260902204516 98 0.0 2.0 0.00 0.11 0.05 50 1019.2
20260902203516 99 0.0 1.0 0.00 0.11 0.05 51 1019.2
20260902202516 98 248 1.0 3.0 0.01 0.11 0.05 51 1019.3
20260902201516 98 0.0 3.0 0.01 0.11 0.05 52 1019.3
20260902200537 97 0.0 3.0 0.01 0.11 0.05 51 1019.3
20260902195636 97 23 2.0 6.0 0.01 0.11 0.05 53 1019.5
20260902194536 97 0.0 1.0 0.02 0.11 0.05 54 1019.6
20260902193516 97 293 1.0 3.0 0.02 0.11 0.05 53 1019.7
20260902192516 96 248 1.0 3.0 0.01 0.10 0.04 56 1019.8
20260902191516 94 0.0 3.0 0.01 0.10 0.04 59 1019.8
20260902190516 95 45 1.0 4.0 0.01 0.10 0.04 55 1019.9
20260902185516 96 315 1.0 3.0 0.01 0.10 0.04 56 1020.1
20260902184516 96 0.0 2.0 0.00 0.09 0.03 58 1020.2